Regional Weather Roundup
Issued by NWS

Home | Current Version | Previous Version | Graphics & Text | Print | Product List | Glossary On
Versions: 1 2 3 4 5 6 7 8 9 10 11 12 13 14 15 16 17 18 19 20 21 22 23 24 25 26 27 28
000
ASUS45 KSLC 241110
RWRUT

UTAH REGIONAL WEATHER ROUNDUP
NATIONAL WEATHER SERVICE SALT LAKE CITY UT
500 AM MDT THU APR 24 2014

UTZ001>011-023>025-241200-

NORTHERN UTAH

CITY           SKY/WX    TMP DP  RH WIND       PRES   REMARKS
HILL AFB       CLEAR     37  20  51 E13       30.05S WCI  29
LOGAN          CLEAR     31  26  82 E3        30.05R
OGDEN          CLEAR     38  22  52 S10       30.05R WCI  31
PROVO AIRPORT  PTCLDY    34  19  55 E5        30.11S WCI  30
SALT LAKE CITY PTCLDY    41  22  46 SE12      30.06S
VERNAL         CLEAR     31  12  45 VRB3      30.10R
WENDOVER       PTCLDY    41  18  38 NE9       30.03F
HEBER CITY     PTCLDY    23  18  80 CALM      30.11S
WEST JORDAN    CLEAR     37  28  70 S12       30.07F WCI  30

$$

UTZ012>022-026-027-241200-

SOUTHERN UTAH

CITY           SKY/WX    TMP DP  RH WIND       PRES   REMARKS
BRYCE CANYON   MOCLDY    19  10  68 NW3       30.14R
CEDAR CITY     MOCLDY    31  12  45 NW3       30.07S
MILFORD        MOCLDY    31   8  38 W8        30.06F WCI  23
MOAB/CYNLANDS  CLEAR     30   4  33 CALM      30.08R
PRICE          PTCLDY    30   9  41 CALM      30.10R
ST GEORGE      MOSUNNY   52  14  22 SE7       30.03R
KANAB            N/A     37  12  35 NW15      30.11S WCI  28

$$

REGIONAL REPORTS     COLORADO/ARIZONA

CITY           SKY/WX    TMP DP  RH WIND       PRES   REMARKS
CRAIG, CO      CLEAR     20  16  84 CALM      30.12R
GRAND JUNCTION CLEAR     28  12  51 E5        30.10R WCI  23
RIFLE          CLEAR     27  15  61 SE5       30.12R WCI  22
MONTROSE       CLEAR     31  15  52 SE9       30.13S WCI  23
CORTEZ         CLEAR     24  13  62 CALM      30.09S
PAGE, AZ       PTCLDY    47  11  23 SE3       30.06R
GRAND CANYON   MOCLDY    23   9  55 CALM      30.11S
KINGMAN        PTCLDY    50   8  18 CALM      29.99S
FLAGSTAFF      MOCLDY    26  11  52 CALM      30.13S

$$

REGIONAL REPORTS    NEVADA/IDAHO/WYOMING

CITY           SKY/WX    TMP DP  RH WIND       PRES   REMARKS
LAS VEGAS, NV  MOCLDY    61  14  16 S10       29.91S
ELY            CLOUDY    30  14  51 SW5       30.06F WCI  25
ELKO           CLOUDY    35  25  66 NE3       30.02R
POCATELLO, ID  CLEAR     42  23  46 S14       29.98F
BURLEY         MOCLDY    39  28  64 S13       29.96S WCI  31
EVANSTON, WY   CLEAR     25  15  66 SW10      30.06S WCI  15
ROCK SPRINGS   CLEAR     28  13  53 SW12      30.05R WCI  18

$$



USA.gov is the U.S. government's official web portal to all federal, state and local government web resources and services.